Regional Weather Roundup
Issued by NWS

Home | Current Version | Previous Version | Graphics & Text | Print | Product List | Glossary On
Versions: 1 2 3 4 5 6 7 8 9 10 11 12 13 14 15 16 17 18 19 20 21 22 23 24 25 26 27 28 29 30 31 32 33 34 35 36 37 38 39 40 41 42 43 44 45 46 47 48 49 50
000
ASUS43 KDTX 200510
RWRMI
MICHIGAN HOURLY REGIONAL WEATHER ROUNDUP
NATIONAL WEATHER SERVICE DETROIT/PONTIAC MI
100 AM EDT WED AUG 20 2014

NOTE: "FAIR" INDICATES FEW OR NO CLOUDS BELOW 12,000 FEET WITH NO
SIGNIFICANT WEATHER AND/OR OBSTRUCTION TO VISIBILITY.

MIZ047>049-052>055-059>063-066>070-074>076-081>083-200600-
SOUTHEAST LOWER MICHIGAN

CITY           SKY/WX    TMP DP  RH WIND       PRES   REMARKS
ADRIAN         MOCLDY    67  64  90 CALM      29.82S
ALMA           CLOUDY    68  66  95 SW3       29.78R
ANN ARBOR      MOCLDY    66  62  87 S5        29.80R
BAD AXE        CLOUDY    66  66  99 S8        29.78S
CARO           CLOUDY    66  65  96 S5        29.78R
DETROIT CITY   CLOUDY    69  65  86 S6        29.80F
DETROIT        CLOUDY    67  65  93 S5        29.81S
FLINT          LGT RAIN  67  63  87 S6        29.79R
GROSSE ILE     CLOUDY    72  66  83 S10       29.79S
HILLSDALE      CLOUDY    66  66 100 CALM      29.81F
HOWELL         MOCLDY    65  64  96 S3        29.80R

CITY           SKY/WX    TMP DP  RH WIND       PRES   REMARKS
JACKSON        CLOUDY    67  64  90 S6        29.80R
LAMBERTVILLE   MOCLDY    68  64  88 S5        29.81S
LANSING        CLOUDY    68  65  90 CALM      29.79R
LAPEER         MOCLDY    64  63  95 CALM      29.79S
MASON          MOCLDY    65  63  96 CALM      29.79S
MONROE         LGT RAIN  68  66  94 S15       29.78F
MT. CLEMENS    CLOUDY    67  66  97 S6        29.79S
PONTIAC        MOCLDY    65  63  93 SW3       29.79F
PORT HOPE        N/A     67  63  87 SW5       29.75F
PORT HURON     CLOUDY    64  64 100 CALM      29.80S
TRI CITIES     CLOUDY    68  65  90 S8        29.77S
TROY           CLOUDY    67  65  92 CALM      29.82R FOG
SAGINAW HB     PTCLDY    66  66 100 S5        29.76S
$$
MIZ043>046-050>051-056>058-064>065-071>073-077>080-200600-
SOUTHWEST LOWER MICHIGAN

CITY           SKY/WX    TMP DP  RH WIND       PRES   REMARKS
BATTLE CREEK   MOCLDY    69  65  86 SW6       29.79R
BENTON HARBOR  CLOUDY    70  66  87 SW5       29.76F
BIG RAPIDS     CLOUDY    64  64 100 CALM      29.75S FOG
COLDWATER      MOCLDY    69  67  93 CALM      29.79S
FREMONT        CLOUDY    67  66  99 CALM      29.76R FOG
HOLLAND        CLOUDY    70  67  90 CALM      29.77R
GRAND RAPIDS   CLOUDY    70  69  97 S3        29.77R FOG
IONIA          MOCLDY    65  64  97 CALM      29.77R FOG
KALAMAZOO      MOCLDY    69  66  90 S7        29.78S
LUDINGTON      PTCLDY    67  66  95 SW8       29.74S FOG
MARSHALL       MOCLDY    66  65  96 CALM      29.78S
MOUNT PLEASANT CLOUDY    69  68  95 SW7       29.75F FOG
MUSKEGON       MOCLDY    66  63  88 SE3       29.76R FOG
SOUTH HAVEN    MOCLDY    68  68  99 SW3       29.76S
$$
MIZ016>042-200600-
NORTHERN LOWER MICHIGAN

CITY           SKY/WX    TMP DP  RH WIND       PRES   REMARKS
ALPENA         CLOUDY    66  65  96 CALM      29.74R FOG
BEAVER ISLAND  CLOUDY    63  62  97 E5        29.73S FOG
BELLAIRE       MOCLDY    64  62  95 CALM      29.73R FOG
CADILLAC       CLOUDY    63  63 100 CALM      29.76R FOG
CHARLEVOIX     CLEAR     64  64  99 CALM      29.75S
FRANKFORT      CLOUDY    65  62  89 W3        29.74R FOG
GAYLORD        CLOUDY    65  64  97 CALM      29.75R FOG
GRAYLING       MOCLDY    63  63 100 W3        29.76R FOG
HARBOR SPRINGS CLOUDY    65  64  96 CALM      29.73S FOG
HOUGHTON LAKE  CLOUDY    66  66 100 SW6       29.76R FOG
MANISTEE       CLEAR     66  63  88 CALM      29.74S
OSCODA         CLOUDY    68  67  98 SW7       29.73S FOG
PELLSTON       CLOUDY    62  61  96 NE3       29.74R
ROGERS CITY    FOG       63  63 100 MISG      29.74S VSB 1/4
TRAVERSE CITY  CLOUDY    67  63  87 CALM      29.72R
$$
MIZ007>008-015-200600-
EASTERN UPPER MICHIGAN

CITY           SKY/WX    TMP DP  RH WIND       PRES   REMARKS
KINROSS        CLOUDY    61  61 100 E7        29.75S
MACKINAC ISLAN CLOUDY    59  59 100 E6        29.74S FOG
NEWBERRY       FOG       61  61 100 E5        29.74R VSB 1/2
S. S. MARIE    CLOUDY    61  58  90 E3        29.75R
MUNISING         N/A     59  57  93 NW7       29.74R
$$
MIZ004>006-011>014-085-200600-
CENTRAL UPPER MICHIGAN

CITY           SKY/WX    TMP DP  RH WIND       PRES   REMARKS
MANISTIQUE     CLOUDY    60  60 100 E5        29.72S FOG
ESCANABA       CLOUDY    63  59  88 NW5       29.73R
MENOMINEE      PTCLDY    63  59  88 NW5       29.73S
SAWYER-GWINN   CLOUDY    58  57  97 N7        29.76R FOG
$$
MIZ001>003-009>011-084-200600-
WESTERN UPPER MICHIGAN

CITY           SKY/WX    TMP DP  RH WIND       PRES   REMARKS
IRON MOUNTAIN  CLOUDY    62  58  86 NW10      29.75R
HOUGHTON       CLOUDY    54  53  97 NW9       29.78R FOG
COPPER HARBOR    N/A     56  54  93 N7        29.76S
IRONWOOD       CLOUDY    55  55 100 NW5       29.79S VSB 1/4
$$

ABBREVIATIONS USED IN REMARKS
   TC - TEMPERATURE IN CELSIUS
  WCI - WIND CHILL INDEX
   HX - HEAT INDEX
  VSB - VISIBILITY




USA.gov is the U.S. government's official web portal to all federal, state and local government web resources and services.